Theta_e
326 325 325 326 325 326 324 326 326 326 326 326 325 324 323 323 323 316 305 312 315 327 322 310 309 309 310 310 310 309 298 297 298 298 299 303 300 303 303 303 303 307 310 322 330
325 325 324 325 324 325 323 325 326 326 326 325 324 323 322 323 313 307 319 328 326 329 309 307 304 306 304 306 306 302 299 300 301 301 301 302 301 301 299 301 302 307 314 329 330
324 324 323 325 324 322 323 323 325 325 324 324 323 323 322 319 306 305 326 327 327 326 311 309 309 306 302 304 303 302 299 299 301 302 304 303 301 304 299 298 302 305 312 325 326
323 323 323 324 323 324 324 323 325 323 323 322 322 322 321 315 294 312 327 328 329 316 309 306 305 302 301 299 303 298 301 301 303 302 302 302 302 299 302 300 303 306 316 323 323
321 322 322 322 322 323 323 324 324 323 322 322 322 321 313 303 304 316 326 327 320 312 306 304 302 301 299 299 300 298 298 300 301 300 300 302 299 298 297 302 304 306 316 317 322
320 320 321 321 322 322 323 324 323 322 321 321 322 321 310 296 312 316 316 317 311 308 306 306 303 304 299 299 298 299 299 299 299 299 299 299 297 297 300 303 302 304 306 314 316
319 319 320 320 321 322 322 323 322 321 321 321 322 314 304 302 312 315 313 310 310 308 305 307 306 302 301 298 300 298 295 296 296 298 297 298 294 295 298 299 300 300 301 306 312
319 318 319 320 321 321 322 322 321 320 321 322 322 312 300 313 313 312 312 309 310 310 309 308 308 305 302 299 298 294 294 289 296 297 297 296 290 298 299 297 297 298 297 301 305
318 318 319 319 319 320 321 321 320 320 320 321 312 308 298 311 307 310 311 306 307 307 308 308 307 301 300 294 290 292 287 290 291 297 296 294 291 296 298 297 295 296 298 299 301
317 317 318 319 319 319 320 319 320 319 317 314 310 301 302 300 307 308 309 309 305 304 303 302 300 295 293 291 284 287 286 289 289 293 293 292 292 295 296 296 296 296 298 297 298
317 318 318 318 319 320 317 313 305 302 305 298 299 299 300 307 309 306 308 306 305 301 293 298 292 289 291 293 292 291 289 288 291 293 292 291 292 294 297 296 296 296 297 298 299
317 317 318 318 319 319 313 302 302 305 296 303 302 302 306 307 299 303 307 300 299 293 296 293 289 295 296 295 292 290 289 287 290 294 292 290 291 294 296 296 296 297 297 299 299
317 317 317 318 318 315 308 305 309 306 295 298 302 300 302 305 299 300 303 300 297 293 293 290 293 297 295 293 291 289 288 288 288 291 290 287 287 290 294 296 297 298 297 296 296
317 316 316 317 311 311 306 311 313 309 288 291 295 300 303 304 297 305 304 300 296 293 294 292 295 293 292 292 292 287 291 291 290 287 282 287 279 286 291 291 293 294 295 294 297
316 316 317 316 310 306 308 314 314 307 278 293 294 305 303 298 298 299 303 299 294 294 294 290 290 292 291 292 293 289 292 290 289 285 284 283 280 285 289 289 292 293 295 296 299
316 316 316 314 313 311 312 312 309 287 278 288 295 293 295 296 297 298 298 300 298 294 293 291 293 293 292 293 293 294 291 290 287 285 278 284 283 283 286 290 291 293 295 298 298
316 315 314 314 306 312 312 306 286 280 292 288 288 293 292 291 293 294 292 291 288 285 285 289 289 291 293 289 291 290 287 280 278 277 277 284 282 285 289 289 292 294 296 297 298
310 315 313 314 312 311 307 293 280 286 288 293 291 292 289 292 292 292 290 287 291 289 286 283 281 289 291 290 288 288 287 282 276 276 278 282 279 285 291 291 292 298 298 297 298
309 312 311 312 311 309 298 283 282 287 292 291 291 287 287 290 290 290 289 288 291 291 284 284 284 291 292 292 292 287 284 288 281 274 277 280 284 289 292 292 292 295 297 296 298
302 306 307 312 310 303 291 285 288 294 294 293 286 289 284 287 287 288 288 292 291 293 293 288 283 289 290 292 291 289 291 282 282 273 272 277 279 283 287 289 291 293 294 296 297
298 292 301 311 307 296 285 287 291 296 296 292 290 288 288 287 288 287 288 291 294 292 294 290 288 283 288 286 286 286 286 286 286 283 277 275 278 286 290 291 292 293 296 295 295
295 285 298 308 291 291 287 291 295 294 298 295 294 293 290 290 288 288 287 290 295 295 289 291 289 281 285 289 291 291 287 287 280 279 280 280 281 289 289 292 294 295 297 295 295
288 285 296 296 284 285 292 291 293 293 294 294 293 295 294 290 287 289 291 295 295 294 291 291 286 277 280 285 288 286 288 288 287 284 280 276 281 291 290 293 294 294 295 295 295
290 285 285 287 287 289 289 289 289 297 295 297 295 296 293 291 293 289 290 294 295 294 297 295 289 284 280 283 287 285 287 289 288 281 283 282 285 287 290 292 293 293 294 294 294
291 286 285 283 285 289 291 291 289 289 295 297 294 294 292 288 289 289 292 293 293 294 294 291 280 286 286 287 288 286 286 288 286 287 282 285 286 289 290 292 294 294 294 294 294
288 288 286 286 288 287 290 288 289 291 292 291 291 294 294 291 290 287 291 291 289 292 291 292 279 285 280 287 287 283 287 288 288 288 287 288 286 291 292 295 293 295 295 294 294
293 293 290 286 285 285 285 287 290 293 295 297 295 294 293 295 297 297 297 297 295 291 290 289 281 279 276 284 285 281 285 287 288 290 289 284 290 292 291 293 294 294 295 295 295
Wind_Speed
23 22 21 20 19 17 18 15 14 12 10 9 8 8 7 5 5 5 9 7 6 10 6 6 3 3 4 2 3 1 2 4 4 9 7 8 5 2 2 6 3 4 6 12 13
24 22 21 20 20 17 20 18 15 13 13 10 9 8 8 5 5 13 5 10 7 10 6 9 6 6 3 4 4 4 2 4 5 5 8 10 8 7 5 8 5 8 5 13 9
25 23 22 21 20 20 19 18 15 15 14 12 11 10 10 7 4 8 16 12 11 9 4 4 1 7 4 3 5 5 2 2 6 6 5 8 5 7 4 6 10 11 10 13 11
25 23 21 21 21 17 16 16 14 14 15 13 11 10 10 6 7 3 3 13 12 9 5 6 5 5 3 4 5 4 2 4 3 4 3 8 4 1 5 3 5 9 16 11 12
24 22 21 21 21 19 16 15 14 13 14 13 12 11 6 5 4 4 4 9 8 7 9 7 8 5 2 5 3 3 5 4 5 2 5 6 4 2 2 7 7 8 14 11 12
24 23 21 20 21 21 17 15 14 12 11 13 12 9 4 9 4 9 8 6 8 9 9 7 6 7 4 3 5 3 7 8 4 4 3 2 4 2 7 9 7 5 7 10 9
23 23 21 20 20 20 17 16 14 11 10 11 12 6 5 7 4 7 8 5 5 7 7 6 1 5 4 3 1 3 6 5 4 4 1 2 2 7 4 5 7 7 7 8 10
24 22 22 20 19 19 17 17 13 11 9 8 7 4 4 2 6 6 7 4 3 5 2 5 1 2 1 3 2 3 3 4 5 5 2 2 4 12 10 9 8 9 9 9 8
25 24 23 21 19 19 19 17 13 11 10 9 5 5 4 1 6 9 8 8 7 5 3 3 4 4 3 3 2 3 4 7 4 6 5 5 4 4 5 6 7 7 7 9 8
26 24 25 23 21 20 21 17 13 12 7 7 4 3 5 5 6 9 6 9 5 8 5 5 4 5 4 5 5 6 4 6 6 5 1 4 8 3 6 6 7 6 6 6 9
26 26 26 25 23 24 21 12 8 5 9 5 6 0 9 7 5 6 6 8 5 6 6 8 5 9 12 11 4 4 8 6 6 2 3 7 7 9 8 7 8 7 6 7 9
27 27 28 27 26 25 14 7 10 10 7 6 4 2 5 1 6 9 9 8 7 8 8 5 8 10 9 9 5 3 4 2 3 4 2 2 8 9 9 8 8 9 9 9 7
28 28 28 26 26 17 14 2 1 11 6 4 2 4 4 2 6 15 11 5 9 13 14 9 7 13 10 7 8 6 7 5 4 5 1 2 7 9 9 10 9 8 5 1 3
26 29 30 29 18 14 11 6 2 4 5 8 7 6 5 3 2 11 10 7 7 15 11 8 2 9 6 6 7 7 5 5 8 5 2 2 6 2 6 7 6 7 5 6 7
27 28 31 27 12 16 11 7 3 1 5 16 11 8 11 8 12 3 2 3 8 8 7 5 8 8 9 8 10 0 8 7 3 1 4 4 0 7 4 6 9 9 8 7 7
26 30 32 12 9 16 9 5 3 5 9 9 8 13 10 7 3 4 3 2 2 2 2 4 3 5 4 6 6 8 8 8 2 3 2 8 7 7 7 9 3 7 9 8 7
28 30 28 12 13 14 11 5 6 11 10 8 8 13 16 10 7 7 13 8 8 8 7 5 2 3 2 9 4 4 7 3 1 1 6 8 6 12 2 1 5 9 9 8 8
4 26 22 9 17 17 6 7 6 12 16 5 11 18 16 19 9 9 14 14 13 8 10 9 5 8 5 6 9 9 8 7 8 6 4 6 8 9 1 7 5 7 9 7 8
4 8 12 13 19 14 13 12 11 14 14 9 17 18 13 16 11 10 13 14 16 15 7 11 3 6 6 0 11 6 8 3 8 3 5 6 7 4 5 5 6 6 7 8 7
2 4 11 20 22 18 13 19 12 6 14 14 10 10 18 22 11 16 17 14 11 19 8 0 6 2 2 2 2 4 6 3 1 5 4 6 5 9 7 9 8 9 9 8 7
4 4 6 16 15 16 20 17 9 4 3 13 8 9 15 22 16 14 10 5 23 18 13 3 7 1 4 7 9 2 5 4 5 6 7 2 9 4 12 15 17 11 10 9 8
4 3 7 6 13 10 16 19 11 11 1 6 8 5 9 16 19 15 14 14 14 16 23 5 6 5 7 1 1 10 7 10 7 4 3 5 11 0 2 9 11 12 11 9 8
4 1 4 1 12 15 5 20 17 14 9 7 6 5 6 11 13 18 10 5 8 16 19 11 4 4 0 3 2 5 4 6 6 4 7 7 14 5 2 8 8 11 10 9 9
3 3 3 3 2 13 9 20 20 9 11 6 8 4 9 7 8 15 8 1 5 8 9 11 4 14 18 3 13 7 10 13 6 5 19 13 18 4 6 8 8 9 9 9 8
2 2 1 5 2 4 12 20 19 14 13 11 9 12 8 8 15 4 16 3 5 3 6 9 8 6 14 2 4 5 13 17 20 25 10 27 21 15 11 11 14 10 10 11 11
2 2 2 2 5 3 17 14 25 18 17 25 12 16 14 5 9 11 10 6 6 3 10 4 3 6 3 6 4 4 9 21 24 22 20 20 20 7 10 12 11 17 17 14 13
1 2 0 2 2 4 3 3 24 16 10 15 15 15 12 6 8 4 4 10 9 11 11 8 7 4 4 7 6 5 28 11 17 23 20 23 36 6 6 11 12 14 17 19 15
Wind_Direction
191 190 188 190 185 185 189 180 186 173 173 176 167 153 149 141 125 201 221 222 198 156 142 147 204 151 272 230 266 307 323 254 236 151 126 143 114 346 355 118 84 64 56 111 117
192 186 188 190 184 185 190 181 180 172 164 169 161 145 135 141 223 239 218 173 145 155 172 176 156 143 244 203 206 177 255 268 8 26 138 162 138 141 163 129 121 94 73 108 113
189 184 187 183 180 193 188 184 178 166 163 166 158 151 142 161 227 231 191 167 169 177 213 220 171 159 204 272 214 185 231 16 35 20 87 153 124 155 181 174 171 167 155 135 138
187 180 184 177 172 181 182 183 173 166 161 157 154 152 156 194 209 39 111 146 165 180 222 169 132 147 217 199 239 198 171 358 75 0 47 138 106 195 261 104 32 78 151 146 156
184 175 179 174 170 171 178 174 165 170 163 155 155 161 175 200 252 130 129 144 159 175 197 181 164 156 254 205 122 246 118 79 81 122 49 83 112 332 265 118 72 80 145 161 164
180 171 170 167 168 163 170 162 161 166 167 153 162 171 237 214 121 139 133 154 180 175 205 193 177 182 233 223 202 172 128 109 164 116 61 142 103 53 237 145 144 134 166 168 183
176 169 162 165 160 156 161 155 156 160 158 163 164 195 231 198 138 130 140 176 204 199 182 204 346 151 159 103 310 144 105 121 180 180 99 317 175 224 153 146 181 186 213 196 191
171 167 155 160 154 152 154 142 144 149 148 160 172 217 238 20 112 148 176 147 219 240 303 152 161 92 355 118 118 167 155 154 167 150 134 166 251 222 159 157 203 200 209 197 221
166 161 155 156 151 148 141 131 140 138 148 147 164 243 216 156 175 165 174 156 163 168 75 122 180 137 115 168 115 229 181 204 172 213 132 193 244 131 134 170 230 225 223 187 195
165 158 152 151 149 145 130 126 133 129 160 173 259 200 165 197 145 146 183 151 152 132 119 163 165 162 192 186 190 175 224 178 153 194 36 195 266 197 193 211 227 249 231 208 192
159 156 155 152 150 144 133 128 146 146 206 169 178 285 135 92 109 169 167 156 146 175 162 201 180 194 191 200 227 309 174 159 106 38 173 225 255 253 213 193 227 248 258 223 196
161 158 154 153 153 152 163 185 172 133 170 256 323 122 64 237 140 166 168 161 158 179 178 152 215 201 204 202 153 191 176 127 61 99 102 318 263 264 262 228 216 212 226 233 215
164 160 153 153 148 156 191 189 88 148 132 147 261 172 171 186 168 175 186 181 178 192 198 172 197 221 205 186 161 206 188 171 119 156 225 355 268 235 238 225 226 222 214 283 70
161 157 154 152 152 167 202 125 40 70 118 169 202 214 146 211 254 153 205 177 193 198 192 215 166 197 157 166 156 207 187 128 133 134 201 178 275 286 202 206 224 242 229 212 116
166 158 158 159 138 172 170 119 135 70 167 160 162 155 153 185 126 192 22 67 187 189 150 173 154 161 176 185 177 201 125 129 122 169 73 195 23 255 138 220 220 205 179 144 128
167 165 158 167 139 165 131 123 119 105 223 169 130 172 147 207 102 100 158 330 311 147 69 74 328 149 160 57 134 140 94 85 136 152 256 189 165 256 193 201 197 148 148 135 131
169 167 166 161 158 150 143 161 104 203 142 162 175 180 165 167 135 178 177 175 162 136 175 108 167 71 129 87 81 141 137 90 55 69 231 323 170 240 234 23 157 156 156 152 143
78 171 175 168 142 140 166 151 172 192 184 187 154 159 187 151 180 189 168 189 218 209 154 161 196 155 192 172 171 197 174 156 183 187 204 346 236 257 151 95 91 120 138 147 153
36 165 171 164 150 143 154 191 200 170 170 124 140 165 189 182 142 172 197 201 194 197 201 177 197 63 136 91 135 214 225 113 104 14 70 210 272 277 158 164 158 139 138 171 161
74 190 182 165 155 151 171 198 187 145 156 147 165 185 185 179 176 186 181 194 205 207 223 134 110 19 8 340 331 181 138 88 291 135 233 256 238 230 219 213 185 180 187 172 147
41 42 349 160 154 163 191 198 168 122 154 159 169 164 193 183 189 188 199 215 189 184 207 189 110 91 121 220 163 156 188 202 157 173 178 214 254 209 194 194 190 180 176 170 161
92 146 351 161 147 188 204 193 171 183 105 186 172 140 181 186 192 193 218 184 180 173 195 155 105 158 196 96 242 220 194 187 163 237 223 157 251 233 54 165 156 165 166 165 167
84 47 1 122 167 189 169 203 206 181 181 188 154 206 167 176 193 216 192 335 170 173 177 172 180 84 47 307 164 210 202 224 260 71 212 147 256 281 78 124 154 158 160 159 147
112 120 38 360 336 183 173 184 202 177 178 181 172 179 149 203 172 197 198 7 347 155 142 134 163 203 209 130 142 193 194 210 190 193 233 226 235 200 164 158 165 165 150 147 161
31 114 97 171 176 203 178 181 174 183 209 169 198 187 176 177 192 187 195 111 11 45 151 155 204 194 242 335 148 193 187 198 206 223 195 240 248 227 189 189 193 165 148 169 186
111 177 138 74 133 118 194 201 181 179 187 190 179 182 196 168 183 188 176 136 180 188 182 185 231 167 298 217 188 224 212 205 213 224 234 250 262 163 187 192 179 180 181 184 190
144 100 358 100 102 132 182 179 201 191 196 188 194 168 202 182 71 354 129 149 155 157 186 162 134 105 248 152 88 319 225 204 219 219 214 230 242 155 225 191 186 185 188 194 183